Regional Weather Roundup
Issued by NWS

Home | Current Version | Previous Version | Graphics & Text | Print | Product List | Glossary On
Versions: 1 2 3 4 5 6 7 8 9 10 11 12 13 14 15 16 17 18 19 20 21 22 23 24 25 26 27 28 29 30 31 32 33 34 35 36 37 38 39 40 41 42 43 44 45 46 47 48 49 50
000
ASUS43 KLOT 011912
RWRIL

ILLINOIS REGIONAL WEATHER ROUNDUP
NATIONAL WEATHER SERVICE CHICAGO/ROMEOVILLE IL
200 PM CDT WED JUL 01 2015

NOTE: "FAIR" INDICATES FEW OR NO CLOUDS BELOW 12,000 FEET WITH NO
SIGNIFICANT WEATHER AND/OR OBSTRUCTIONS TO VISIBILITY.

* THESE STATIONS ARE NOT UNDER NWS QUALITY CONTROL. THEY ALSO MAY NOT
  REPORT WEATHER SUCH AS PRECIPITATION OR FOG.

ILZ001-002-007-009-015-016-024-012000-
NORTHWEST ILLINOIS

CITY           SKY/WX    TMP DP  RH WIND       PRES   REMARKS
MOLINE         PTSUNNY   72  61  68 NE9       29.92F
STERLING*      MOSUNNY   72  61  68 E3        29.95F
SAVANNA*       MOSUNNY   73  55  54 E6        29.95F
$$

ILZ003-004-008-010-011-017-018-012000-
NORTH CENTRAL ILLINOIS

CITY           SKY/WX    TMP DP  RH WIND       PRES   REMARKS
ROCKFORD       CLOUDY    73  53  49 N9        29.97F
FREEPORT*      MOSUNNY   70  55  59 NE6       29.99R
ROCHELLE*      PTSUNNY   69  58  67 N7        29.96F
DE KALB*       PTSUNNY   67  56  68 N7        29.96F
PERU*          CLOUDY    69  59  70 NE5       29.95F
$$

ILZ005-006-012>014-019>023-012000-
NORTHEAST ILLINOIS

CITY           SKY/WX    TMP DP  RH WIND       PRES   REMARKS
CHICAGO-OHARE  PTSUNNY   66  55  67 E8        29.96S
CHICAGO-MIDWAY CLOUDY    65  54  67 E13       29.96F
AURORA         PTSUNNY   71  58  63 NE5       29.95F
LANSING*       CLOUDY    63  52  67 NE8       29.97F
JOLIET*        PTSUNNY   70  60  70 E5        29.94F
WAUKEGAN       SUNNY     59  50  72 NE13      29.98S
DUPAGE AIRPORT PTSUNNY   69  56  62 N7        29.95F
KANKAKEE*      CLOUDY    71  61  70 N3        29.94F
WHEELING       SUNNY     64  51  62 E8        29.99S
MORRIS*        CLOUDY    70  59  67 E3        29.93F
ROMEOVILLE*    PTSUNNY   70  56  62 E6        29.95F
NORTHERLY ISL    N/A     59  50  72 NE10        N/A
$$

LMZ740>746-012000-
SOUTHERN LAKE MICHIGAN

STATION/POSITION SKY/WX   TEMP    WIND        PRES    VSBY  WAVE
                          AIR SEA DIR/SP/G                  HT/PER
                          (F)     (DEG/KT/KT) (MB)    (MI)  (FT/S)
HARRISON CRIB              56      50/ 11/ 13   N/A
BURNHAM HARBOR             59      40/  9/ 10   N/A
CALUMET HARBOR             58      50/  8/ 11   N/A
BURNS HARBOR               58      30/ 10/ 12 1016.3S
MICHIGAN CITY              58     350/ 10/ 14   N/A
MICHIGAN CITY 6N           58 65   40/  8/ 10   N/A           3/ 5
ST. JOSEPH                 58 63                N/A           3/ 5
$$

ILZ025>027-034>036-040-047-049-050-058-095>099-012000-
WEST-CENTRAL ILLINOIS

CITY           SKY/WX    TMP DP  RH WIND       PRES   REMARKS
QUINCY         CLOUDY    80  67  64 SW6       29.88S HX  82
GALESBURG*     PTSUNNY   74  64  70 NE9       29.91F
MACOMB*        CLOUDY    76  69  78 NE12      29.92F
JACKSONVILLE*  PTSUNNY   82  68  63 SW3       29.88F HX  85
PITTSFIELD*    PTSUNNY   81  69  67 SW3       29.90F HX  84
$$

ILZ028>032-037-038-041>044-048-051>054-059>061-012000-
CENTRAL ILLINOIS

CITY           SKY/WX    TMP DP  RH WIND       PRES   REMARKS
PONTIAC        PTSUNNY   74  65  74 E7        29.94S
BLOOMINGTON    MOSUNNY   76  66  71 NE6       29.94S
DECATUR        PTSUNNY   79  69  71 NE9       29.90S HAZE    HX  81
PEORIA         PTSUNNY   78  64  61 NE8       29.91F HX  80
LACON*         PTSUNNY   73  62  68 NE5       29.92F
LINCOLN*       PTSUNNY   78  68  71 NE6       29.90F HX  80
SPRINGFIELD    MOSUNNY   83  68  60 SW7       29.89F HX  86
TAYLORVILLE    CLOUDY    77  68  73 NW3       29.89S
$$

ILZ033-039-045-046-055>057-062-063-012000-
EAST-CENTRAL ILLINOIS

CITY           SKY/WX    TMP DP  RH WIND       PRES   REMARKS
CHAMPAIGN      CLOUDY    74  66  76 E8        29.91F
DANVILLE*      CLOUDY    71  64  79 CALM      29.90F
RANTOUL*       CLOUDY    74  65  73 E6        29.92F
MATTOON        MOSUNNY   77  70  79 CALM      29.88F
PARIS*         CLOUDY    74  68  81 CALM      29.91F
$$

ILZ079-100>102-012000-
SOUTHWEST ILLINOIS

CITY           SKY/WX    TMP DP  RH WIND       PRES   REMARKS
ALTON          PTSUNNY   81  75  83 W6        29.89F HX  86
BELLEVILLE     MOSUNNY   82  72  70 VRB5      29.87F HX  87
CAHOKIA*       MOSUNNY   84  68  58 W8        29.87F HX  87
SPARTA*        MOSUNNY   80  67  65 SW6       29.90F HX  82
$$

ILZ064>066-069>071-074>076-080>082-084>086-088>090-092>094-012000-
SOUTH-CENTRAL ILLINOIS

CITY           SKY/WX    TMP DP  RH WIND       PRES   REMARKS
CARBONDALE     CLOUDY    78  68  71 VRB5      29.89F HX  80
CAIRO*         CLOUDY    76  68  78 S5        29.88F
EFFINGHAM*     MOSUNNY   82  63  52 W6        29.91F HX  83
MARION         MOSUNNY   77  68  73 SE6       29.90F
MT. VERNON     PTSUNNY   81  66  61 SW6       29.91F HX  83
CENTRALIA*     PTSUNNY   80  67  65 W5        29.90F HX  82
SALEM*         CLOUDY    80  68  67 W7        29.90F HX  82
METROPOLIS*    CLOUDY    76  70  80 E3        29.90F
$$

ILZ067-068-072-073-078-083-087-091-012000-
SOUTHEAST ILLINOIS

CITY           SKY/WX    TMP DP  RH WIND       PRES   REMARKS
LAWRENCEVILLE  PTSUNNY   75  70  84 SW7       29.90F
FLORA*         PTSUNNY   79  69  70 SW7       29.90F HX  81
FAIRFIELD*     CLOUDY    78  70  76 SW5       29.89F
HARRISBURG*    CLOUDY    79  69  72 W8        29.93F HX  81
ROBINSON*      CLOUDY    78  70  76 SW7       29.89F
CARMI*         PTSUNNY   77  65  66 W10       29.91F
$$

ABBREVIATIONS USED IN REMARKS
   TC - TEMPERATURE IN CELSIUS
  WCI - WIND CHILL INDEX
   HX - HEAT INDEX
  VSB - VISIBILITY
$$



USA.gov is the U.S. government's official web portal to all federal, state and local government web resources and services.